Baltimore Martin, MD

12:29 AM EDT on May 23, 2017 (GMT -0400)
Martin State

Weather History for KMTN - March, 2014

Change the Weather History Date:

Wednesday, March 26, 2014

  Actual Average Record
Temperature  
Mean Temperature 32 °F -  
Max Temperature 37 °F 54 °F 69 °F (2004)
Min Temperature 28 °F 37 °F 28 °F (2014)
Degree Days  
Heating Degree Days 32    
Moisture  
Dew Point 19 °F    
Average Humidity 66    
Maximum Humidity 100    
Minimum Humidity 28    
Precipitation  
Precipitation 0.00 in - - ()
Sea Level Pressure  
Sea Level Pressure 30.05 in    
Wind  
Wind Speed 6 mph (West)    
Max Wind Speed 29 mph    
Max Gust Speed 40 mph    
Visibility 8 miles    
Events      
Averages and records for this station are not official NWS values.
T = Trace of Precipitation, MM = Missing Value Source: NWS Daily Summary

Daily Weather History Graph

Daily Weather History Graph

Search for Another Location

Airport or City:

Trip Planner

Search our weather history database for the weather conditions in past years. The results will help you decide how hot, cold, wet, or windy it might be!

Date:

Astronomy

Mar. 26, 2014 Rise Set
Actual Time 6:59 AM EDT 7:23 PM EDT
Civil Twilight 6:32 AM EDT 7:50 PM EDT
Nautical Twilight 6:01 AM EDT 8:22 PM EDT
Astronomical Twilight 5:28 AM EDT 8:54 PM EDT
Moon 4:05 AM EDT (3/26) 3:00 PM EDT (3/26)
Length of Visible Light 13h 17m
Length of Day
12h 24m
Waning Crescent, 22% of the Moon is Illuminated
Mar 26
Waning Crescent
Mar 30
New
Apr 7
First Quarter
Apr 15
Full
Apr 22
Last Quarter

Hourly Weather History & Observations

Time (EDT) Temp. Windchill Dew Point Humidity Pressure Visibility Wind Dir Wind Speed Gust Speed Precip Events Conditions
12:12 AM 32.0 °F - 32.0 °F 100% 29.91 in 7.0 mi Calm Calm - N/A   Scattered Clouds
12:33 AM 32.0 °F - 32.0 °F 100% 29.91 in 7.0 mi Calm Calm - N/A   Clear
12:51 AM 32.0 °F - 32.0 °F 100% 29.91 in 7.0 mi Calm Calm - N/A   Clear
1:12 AM 32.0 °F - 32.0 °F 100% 29.90 in 5.0 mi Calm Calm - N/A   Scattered Clouds
1:33 AM 32.0 °F - 30.2 °F 93% 29.90 in 7.0 mi Calm Calm - N/A   Scattered Clouds
1:54 AM 30.2 °F - 28.4 °F 93% 29.89 in 5.0 mi Calm Calm - N/A   Clear
2:12 AM 30.2 °F - 30.2 °F 100% 29.89 in 5.0 mi Calm Calm - N/A   Clear
2:33 AM 30.2 °F - 30.2 °F 100% 29.90 in 4.0 mi Calm Calm - N/A   Clear
2:54 AM 28.4 °F - 28.4 °F 100% 29.90 in 5.0 mi Calm Calm - N/A   Clear
3:12 AM 28.4 °F - 26.6 °F 93% 29.90 in 4.0 mi Calm Calm - N/A   Scattered Clouds
3:33 AM 30.2 °F - 30.2 °F 100% 29.90 in 5.0 mi Calm Calm - N/A   Mostly Cloudy
3:54 AM 30.2 °F - 30.2 °F 100% 29.90 in 4.0 mi Calm Calm - N/A   Overcast
4:12 AM 30.2 °F - 30.2 °F 100% 29.90 in 4.0 mi Calm Calm - N/A   Scattered Clouds
4:33 AM 28.4 °F - 26.6 °F 93% 29.91 in 3.0 mi Calm Calm - N/A   Mist
4:54 AM 28.4 °F - 26.6 °F 93% 29.90 in 5.0 mi Calm Calm - N/A   Clear
5:12 AM 30.2 °F - 26.6 °F 86% 29.91 in 7.0 mi Calm Calm - N/A   Clear
5:27 AM 30.2 °F - 26.6 °F 86% 29.92 in 10.0 mi Calm Calm - N/A   Clear
5:45 AM 30.2 °F 20.8 °F 26.6 °F 86% 29.93 in 10.0 mi West 11.5 mph - N/A   Overcast
6:45 AM 30.2 °F 19.3 °F 23.0 °F 75% 29.95 in 10.0 mi West 15.0 mph - N/A   Scattered Clouds
7:45 AM 30.2 °F 18.1 °F 21.2 °F 69% 30.00 in 10.0 mi West 18.4 mph - N/A   Scattered Clouds
8:45 AM 32.0 °F 19.2 °F 19.4 °F 60% 30.03 in 10.0 mi WNW 23.0 mph 28.8 mph N/A   Partly Cloudy
9:45 AM 33.8 °F 21.3 °F 15.8 °F 48% 30.06 in 10.0 mi WNW 24.2 mph 34.5 mph N/A   Partly Cloudy
10:55 AM 32.0 °F 17.9 °F 17.6 °F 55% 30.09 in 10.0 mi WNW 28.8 mph 40.3 mph N/A   Partly Cloudy
11:45 AM 32.0 °F 17.9 °F 17.6 °F 55% 30.10 in 10.0 mi WNW 28.8 mph 40.3 mph N/A   Partly Cloudy
12:55 PM 33.8 °F 20.3 °F 12.2 °F 41% 30.11 in 10.0 mi WNW 28.8 mph 34.5 mph N/A   Partly Cloudy
1:55 PM 37.4 °F 26.6 °F 10.4 °F 33% 30.11 in 10.0 mi West 21.9 mph 32.2 mph N/A   Partly Cloudy
2:45 PM 37.4 °F 26.6 °F 10.4 °F 33% 30.11 in 10.0 mi West 21.9 mph 32.2 mph N/A   Partly Cloudy
3:45 PM 37.4 °F 26.6 °F 6.8 °F 28% 30.12 in 10.0 mi West 21.9 mph 36.8 mph N/A   Clear
4:45 PM 37.4 °F 26.6 °F 6.8 °F 28% 30.12 in 10.0 mi WNW 21.9 mph 32.2 mph N/A   Clear
5:45 PM 37.4 °F 27.2 °F 6.8 °F 28% 30.15 in 10.0 mi West 19.6 mph 29.9 mph N/A   Clear
6:45 PM 35.6 °F 24.5 °F 6.8 °F 30% 30.19 in 10.0 mi West 20.7 mph - N/A   Clear
7:45 PM 33.8 °F 23.2 °F 5.0 °F 30% 30.21 in 10.0 mi West 17.3 mph - N/A   Clear
8:45 PM 33.8 °F 23.5 °F 6.8 °F 32% 30.25 in 10.0 mi WNW 16.1 mph - N/A   Clear
9:45 PM 32.0 °F 23.0 °F 5.0 °F 32% 30.29 in 10.0 mi West 11.5 mph - N/A   Clear
10:15 PM 32.0 °F 25.6 °F 6.8 °F 35% 30.30 in 10.0 mi West 6.9 mph - N/A   Clear
10:36 PM 30.2 °F 22.6 °F 8.6 °F 40% 30.31 in 10.0 mi West 8.1 mph - N/A   Clear
10:54 PM 30.2 °F 22.6 °F 8.6 °F 40% 30.32 in 10.0 mi West 8.1 mph - N/A   Clear
11:15 PM 30.2 °F 23.4 °F 8.6 °F 40% 30.33 in 10.0 mi West 6.9 mph - N/A   Clear
11:36 PM 30.2 °F 21.9 °F 10.4 °F 44% 30.33 in 10.0 mi West 9.2 mph - N/A   Clear
11:54 PM 30.2 °F 20.8 °F 10.4 °F 44% 30.33 in 10.0 mi WNW 11.5 mph - N/A   Clear